Location: Ferintosh
(52.7647°N, 112.9692°W)
Time: 13:38:05
(UTC+00:00)

Transit 2A Rocket - Pass Details

Date: 25 May 2024
Orbit: 583 x 910 km, 66.7° (Epoch: 14 June)

Event Time Altitude Azimuth Distance (km) Brightness Sun altitude
Rises 19:56:17 0° 316° (NW) 3,426 8.2 57.9°
Reaches altitude 10° 19:58:57 10° 307° (NW) 2,525 7.7 57.9°
Maximum altitude 20:04:04 32° 247° (WSW) 1,505 7.4 57.7°
Drops below altitude 10° 20:09:19 10° 187° (S) 2,589 8.4 57.4°
Sets 20:12:06 0° 177° (S) 3,526 8.9 57.3°
